Alabaster, AL

3:42 AM CDT on April 25, 2017 (GMT -0500)
Shelby County

Weather History for KEET - July, 2013

Change the Weather History Date:

Monday, July 29, 2013

  Actual Average Record
Temperature  
Mean Temperature 80 °F 81 °F  
Max Temperature 89 °F 91 °F 99 °F (1956)
Min Temperature 71 °F 71 °F 61 °F (1983)
Cooling Degree Days 15 16  
Month to date cooling degree days 385 456  
Year to date cooling degree days 1049 1099  
Since 1 June cooling degree days 797 830  
Growing Degree Days 30 (Base 50)    
Moisture  
Dew Point 67 °F    
Average Humidity 67    
Maximum Humidity 90    
Minimum Humidity 44    
Precipitation  
Precipitation 0.00 in 0.15 in 1.26 in (1977)
Month to date precipitation 6.88 4.44  
Year to date precipitation 40.58 33.00  
Sea Level Pressure  
Sea Level Pressure 30.10 in    
Wind  
Wind Speed 1 mph (NE)    
Max Wind Speed 8 mph    
Max Gust Speed 9 mph    
Visibility 10 miles    
Events      
T = Trace of Precipitation, MM = Missing Value Source: NWS Daily Summary

Daily Weather History Graph

Daily Weather History Graph

Search for Another Location

Airport or City:

Trip Planner

Search our weather history database for the weather conditions in past years. The results will help you decide how hot, cold, wet, or windy it might be!

Date:

Astronomy

Jul. 29, 2013 Rise Set
Actual Time 5:58 AM CDT 7:48 PM CDT
Civil Twilight 5:31 AM CDT 8:15 PM CDT
Nautical Twilight 4:58 AM CDT 8:48 PM CDT
Astronomical Twilight 4:23 AM CDT 9:23 PM CDT
Moon No Moon Rise 1:12 PM CDT (7/29)
Length of Visible Light 14h 44m
Length of Day
13h 50m
Waning Gibbous, 50% of the Moon is Illuminated
Jul 29
Waning Gibbous
Jul 29
Last Quarter
Aug 6
New
Aug 14
First Quarter
Aug 20
Full

Hourly Weather History & Observations

Time (CDT) Temp. Heat Index Dew Point Humidity Pressure Visibility Wind Dir Wind Speed Gust Speed Precip Events Conditions
12:53 AM 75.0 °F - 69.1 °F 82% 30.03 in 10.0 mi Calm Calm - N/A   Clear
1:53 AM 75.0 °F - 69.1 °F 82% 30.03 in 10.0 mi Calm Calm - N/A   Clear
2:53 AM 73.9 °F - 69.1 °F 85% 30.03 in 10.0 mi Calm Calm - N/A   Mostly Cloudy
3:53 AM 72.0 °F - 68.0 °F 87% 30.05 in 10.0 mi Calm Calm - N/A   Clear
4:53 AM 72.0 °F - 64.9 °F 78% 30.05 in 10.0 mi Calm Calm - N/A   Clear
5:53 AM 71.1 °F - 64.9 °F 81% 30.06 in 10.0 mi Calm Calm - N/A   Clear
6:53 AM 72.0 °F - 64.9 °F 78% 30.08 in 10.0 mi Calm Calm - N/A   Clear
7:53 AM 75.0 °F - 66.0 °F 73% 30.10 in 10.0 mi NE 3.5 mph - N/A   Clear
8:53 AM 78.1 °F - 66.0 °F 66% 30.13 in 10.0 mi Calm Calm - N/A   Clear
9:53 AM 81.0 °F 83.3 °F 66.9 °F 62% 30.13 in 10.0 mi Calm Calm - N/A   Clear
10:53 AM 82.0 °F 84.9 °F 68.0 °F 62% 30.14 in 10.0 mi Variable 3.5 mph - N/A   Clear
11:53 AM 82.9 °F 86.5 °F 69.1 °F 63% 30.13 in 10.0 mi Calm Calm - N/A   Clear
12:53 PM 86.0 °F 87.3 °F 64.0 °F 48% 30.12 in 10.0 mi Calm Calm - N/A   Clear
1:53 PM 88.0 °F 89.6 °F 64.9 °F 46% 30.11 in 10.0 mi Calm Calm - N/A   Clear
2:53 PM 88.0 °F 89.3 °F 64.0 °F 45% 30.10 in 10.0 mi Variable 3.5 mph - N/A   Clear
3:53 PM 87.1 °F 88.9 °F 64.9 °F 48% 30.10 in 10.0 mi Variable 3.5 mph - N/A   Clear
4:53 PM 89.1 °F 90.3 °F 64.0 °F 43% 30.10 in 10.0 mi Variable 3.5 mph - N/A   Clear
5:53 PM 87.1 °F 88.9 °F 64.9 °F 48% 30.10 in 10.0 mi NE 4.6 mph - N/A   Clear
6:53 PM 84.0 °F 87.0 °F 68.0 °F 58% 30.12 in 10.0 mi Calm Calm - N/A   Clear
7:53 PM 79.0 °F - 70.0 °F 74% 30.12 in 10.0 mi Calm Calm - N/A   Clear
8:53 PM 75.9 °F - 70.0 °F 82% 30.13 in 10.0 mi Calm Calm - N/A   Clear
9:53 PM 75.0 °F - 70.0 °F 84% 30.15 in 10.0 mi Calm Calm - N/A   Clear
10:53 PM 75.0 °F - 66.9 °F 76% 30.14 in 10.0 mi Calm Calm - N/A   Clear
11:53 PM 73.0 °F - 66.9 °F 81% 30.15 in 10.0 mi Calm Calm - N/A   Clear